M I D A S
Marine Information and Data Acquisition System
Tripno 361 of the Zeeleeuw from 2002-11-20 07:24:24 to 2002-11-20 17:15:09
Back to CruiseResearch ActivitiesStationsMapUnderway DataData graphs

EquipmentUnitsComments
TimeDGPSUTC
LatitudeDGPSDM.mWGS84
LongitudeDGPSDM.mWGS84
SpeedMeteo Stationm/sRelative wind speed
DirectionMeteo StationdegRelative wind direction
TemperatureMeteo Stationdeg CelciusAir temperature
PressureMeteo StationPaAtmospheric pressure
HumidityMeteo Station%Relative humidity
Missing or incorrect values are displayed as -999
Metereological data collected by the RV Zeeleeuw from 2002-11-20 07:24:24 to 2002-11-20 17:15:09
Time Latitude Longitude Speed Direction Temperature Pressure Humidity
2002-11-20 07:25 51°14.52 2°54.84 3.6 196 7.1 100860 87
2002-11-20 07:26 51°14.682 2°54.648 4 179 7.1 100860 87
2002-11-20 07:27 51°14.847 2°54.454 4.8 172 7.1 100860 87
2002-11-20 07:28 51°15.017 2°54.282 4.3 159 7.2 100850 87
2002-11-20 07:29 51°15.186 2°54.108 4.4 174 7.3 100860 87
2002-11-20 07:30 51°15.357 2°53.925 5 160 7.4 100850 87
2002-11-20 07:31 51°15.527 2°53.741 5.4 156 7.4 100850 87
2002-11-20 07:32 51°15.697 2°53.556 4.4 169 7.5 100850 87
2002-11-20 07:33 51°15.883 2°53.36 5.1 173 7.6 100850 87
2002-11-20 07:34 51°16.08 2°53.168 5.7 174 7.6 100850 87
2002-11-20 07:35 51°16.278 2°52.98 5.4 158 7.6 100850 87
2002-11-20 07:36 51°16.483 2°52.822 6 167 7.7 100850 87
2002-11-20 07:37 51°16.689 2°52.673 6.8 166 7.7 100850 86
2002-11-20 07:38 51°16.895 2°52.57 6.3 158 7.8 100840 86
2002-11-20 07:39 51°17.1 2°52.464 6.5 175 7.8 100840 86
2002-11-20 07:40 51°17.307 2°52.356 6.9 173 7.9 100840 86
2002-11-20 07:41 51°17.521 2°52.291 9 170 7.9 100830 86
2002-11-20 07:42 51°17.736 2°52.279 9 174 7.9 100830 85
2002-11-20 07:43 51°17.95 2°52.281 7.8 176 8 100830 86
2002-11-20 07:44 51°18.159 2°52.33 10.2 182 8 100820 85
2002-11-20 07:45 51°18.324 2°52.533 12.5 200 8 100810 85
2002-11-20 07:46 51°18.449 2°52.801 13.5 204 7.9 100800 85
2002-11-20 07:47 51°18.555 2°53.094 14.8 200 8 100810 85
2002-11-20 07:48 51°18.661 2°53.384 12.7 202 8 100810 85
2002-11-20 07:49 51°18.758 2°53.679 14 204 8 100810 85
2002-11-20 07:50 51°18.851 2°53.976 13.5 198 7.9 100810 84
2002-11-20 07:51 51°18.943 2°54.272 12.9 208 7.9 100810 85
2002-11-20 07:52 51°19.035 2°54.567 13.7 207 7.9 100810 85
2002-11-20 07:53 51°19.126 2°54.861 13.1 203 7.8 100810 85
2002-11-20 07:54 51°19.218 2°55.155 13.8 205 7.8 100810 85
2002-11-20 07:55 51°19.312 2°55.448 14 206 7.8 100820 85
2002-11-20 07:56 51°19.405 2°55.743 14.1 205 7.8 100810 85
2002-11-20 07:57 51°19.497 2°56.037 13.7 204 7.8 100820 84
2002-11-20 07:58 51°19.591 2°56.329 14.4 203 7.8 100820 85
2002-11-20 07:59 51°19.684 2°56.62 12.6 202 7.8 100820 85
2002-11-20 08:00 51°19.777 2°56.912 12 205 7.7 100830 85
2002-11-20 08:01 51°19.871 2°57.203 12.9 206 7.7 100820 84
2002-11-20 08:02 51°19.964 2°57.498 13.7 207 7.6 100830 84
2002-11-20 08:03 51°20.058 2°57.791 13.2 204 7.6 100830 85
2002-11-20 08:04 51°20.153 2°58.084 11.5 207 7.7 100840 85
2002-11-20 08:05 51°20.246 2°58.377 14.3 204 7.6 100830 85
2002-11-20 08:06 51°20.34 2°58.667 13.1 206 7.6 100830 85
2002-11-20 08:07 51°20.435 2°58.956 14.7 204 7.5 100830 85
2002-11-20 08:08 51°20.526 2°59.245 13 209 7.5 100830 85
2002-11-20 08:09 51°20.613 2°59.538 14.4 208 7.5 100830 85
2002-11-20 08:10 51°20.701 2°59.833 13.6 207 7.5 100830 86
2002-11-20 08:11 51°20.785 3°0.132 14.7 205 7.5 100840 86
2002-11-20 08:12 51°20.853 3°0.444 14.6 212 7.5 100820 85
2002-11-20 08:13 51°20.924 3°0.757 14.4 211 7.5 100830 86
2002-11-20 08:14 51°20.994 3°1.072 13.9 207 7.5 100820 85
2002-11-20 08:15 51°21.063 3°1.386 13.6 214 7.5 100830 86
2002-11-20 08:16 51°21.134 3°1.702 13.3 207 7.4 100830 85
2002-11-20 08:17 51°21.204 3°2.019 15.4 208 7.4 100830 85
2002-11-20 08:18 51°21.274 3°2.333 14.7 205 7.4 100840 85
2002-11-20 08:19 51°21.343 3°2.647 13.6 205 7.4 100840 85
2002-11-20 08:20 51°21.411 3°2.963 13.5 207 7.4 100830 85
2002-11-20 08:21 51°21.481 3°3.279 14.2 210 7.4 100830 85
2002-11-20 08:22 51°21.55 3°3.594 14.5 208 7.4 100820 85
2002-11-20 08:23 51°21.621 3°3.909 13.4 197 7.4 100830 85
2002-11-20 08:24 51°21.741 3°4.183 12.5 195 7.4 100820 84
2002-11-20 08:25 51°21.868 3°4.453 11.7 195 7.5 100830 85
2002-11-20 08:26 51°21.949 3°4.761 15.6 210 7.5 100830 85
2002-11-20 08:27 51°21.996 3°5.094 15.7 212 7.5 100830 85
2002-11-20 08:28 51°22.045 3°5.425 13.5 207 7.5 100830 85
2002-11-20 08:29 51°22.096 3°5.757 13.7 211 7.5 100820 84
2002-11-20 08:30 51°22.148 3°6.09 15.4 211 7.4 100830 84
2002-11-20 08:31 51°22.201 3°6.416 13.4 208 7.4 100830 84
2002-11-20 08:32 51°22.254 3°6.745 12.4 212 7.4 100830 84
2002-11-20 08:33 51°22.307 3°7.069 14.3 210 7.4 100840 85
2002-11-20 08:34 51°22.365 3°7.394 13.9 205 7.4 100840 85
2002-11-20 08:35 51°22.43 3°7.715 14.1 208 7.3 100830 84
2002-11-20 08:36 51°22.494 3°8.039 14 207 7.3 100830 85
2002-11-20 08:37 51°22.558 3°8.365 14.8 205 7.3 100830 84
2002-11-20 08:38 51°22.622 3°8.693 14.9 212 7.3 100840 85
2002-11-20 08:39 51°22.684 3°9.02 12 204 7.2 100830 84
2002-11-20 08:40 51°22.693 3°9.219 11.5 214 7.3 100850 85
2002-11-20 08:41 51°22.678 3°9.309 9.2 208 7.3 100860 85
2002-11-20 08:42 51°22.675 3°9.354 6.6 185 7.2 100860 84
2002-11-20 08:43 51°22.677 3°9.378 6.7 183 7.2 100850 84
2002-11-20 08:44 51°22.681 3°9.391 6.1 194 7.3 100860 85
2002-11-20 08:45 51°22.689 3°9.397 7.3 159 7.3 100860 85
2002-11-20 08:46 51°22.699 3°9.408 7.1 178 7.2 100860 84
2002-11-20 08:47 51°22.701 3°9.414 8.4 177 7.2 100860 85
2002-11-20 08:48 51°22.693 3°9.431 8 221 7.2 100860 85
2002-11-20 08:49 51°22.683 3°9.433 6.8 213 7.2 100860 85
2002-11-20 08:50 51°22.674 3°9.436 8.5 202 7.2 100850 85
2002-11-20 08:51 51°22.668 3°9.441 6.2 195 7.1 100860 84
2002-11-20 08:52 51°22.666 3°9.449 6.9 178 7.1 100850 85
2002-11-20 08:53 51°22.668 3°9.459 6 177 7.2 100850 85
2002-11-20 08:54 51°22.671 3°9.471 6.4 178 7.2 100850 86
2002-11-20 08:55 51°22.676 3°9.484 8.2 175 7.3 100850 85
2002-11-20 08:56 51°22.694 3°9.528 8.4 156 7.2 100850 85
2002-11-20 08:57 51°22.765 3°9.455 4 21 7.2 100870 85
2002-11-20 08:58 51°22.751 3°9.308 7.2 308 7.2 100880 85
2002-11-20 08:59 51°22.687 3°9.2 8.8 292 7.2 100870 85
2002-11-20 09:00 51°22.597 3°9.128 9.8 269 7.2 100850 85
2002-11-20 09:01 51°22.533 3°9.118 8.5 255 7.2 100850 85
2002-11-20 09:02 51°22.489 3°9.121 8.2 258 7.2 100850 85
2002-11-20 09:03 51°22.46 3°9.118 8.1 238 7.1 100850 85
2002-11-20 09:04 51°22.458 3°9.091 8 264 7.1 100850 85
2002-11-20 09:05 51°22.462 3°9.063 8 242 7.1 100860 85
2002-11-20 09:06 51°22.442 3°9.109 8.5 178 7.1 100850 85
2002-11-20 09:07 51°22.484 3°9.169 7 164 7 100850 84
2002-11-20 09:08 51°22.554 3°9.258 7.5 161 7.1 100850 85
2002-11-20 09:09 51°22.613 3°9.33 7.1 172 7.1 100850 85
2002-11-20 09:10 51°22.671 3°9.373 6 140 7.1 100850 85
2002-11-20 09:11 51°22.706 3°9.42 7.3 179 7.1 100860 85
2002-11-20 09:12 51°22.705 3°9.414 5.5 184 7.1 100850 85
2002-11-20 09:13 51°22.703 3°9.399 5.7 161 7 100850 85
2002-11-20 09:14 51°22.705 3°9.391 5.9 150 7.1 100850 85
2002-11-20 09:15 51°22.705 3°9.434 8.4 214 7.1 100850 85
2002-11-20 09:16 51°22.691 3°9.46 7.3 218 7.1 100850 85
2002-11-20 09:17 51°22.676 3°9.479 7.9 221 7.1 100860 85
2002-11-20 09:18 51°22.659 3°9.494 7.5 229 7.1 100860 85
2002-11-20 09:19 51°22.646 3°9.509 6.7 199 7.1 100860 85
2002-11-20 09:20 51°22.644 3°9.522 6.6 162 7.1 100850 85
2002-11-20 09:21 51°22.654 3°9.533 7.5 148 7.2 100850 85
2002-11-20 09:22 51°22.667 3°9.55 7.4 157 7.2 100840 85
2002-11-20 09:23 51°22.682 3°9.566 5.9 136 7.3 100840 86
2002-11-20 09:24 51°22.698 3°9.568 6.9 122 7.3 100840 85
2002-11-20 09:25 51°22.713 3°9.562 6.8 117 7.3 100850 85
2002-11-20 09:26 51°22.724 3°9.556 6.1 105 7.2 100840 85
2002-11-20 09:27 51°22.735 3°9.552 6.8 129 7.3 100850 86
2002-11-20 09:28 51°22.746 3°9.56 7.1 145 7.3 100850 85
2002-11-20 09:29 51°22.755 3°9.578 7.8 159 7.3 100850 85
2002-11-20 09:30 51°22.758 3°9.603 8.4 178 7.3 100850 85
2002-11-20 09:31 51°22.755 3°9.634 7.1 190 7.2 100840 85
2002-11-20 09:32 51°22.744 3°9.668 7.3 208 7.2 100830 85
2002-11-20 09:33 51°22.726 3°9.696 7.6 224 7.2 100830 85
2002-11-20 09:34 51°22.699 3°9.709 7.1 250 7.2 100850 85
2002-11-20 09:35 51°22.66 3°9.684 6.9 304 7.3 100840 85
2002-11-20 09:36 51°22.654 3°9.579 3.2 2 7.3 100840 85
2002-11-20 09:37 51°22.743 3°9.328 1.8 292 7.2 100850 85
2002-11-20 09:38 51°22.85 3°9.024 3.4 304 7.3 100850 85
2002-11-20 09:39 51°22.977 3°8.706 2.6 271 7.3 100840 85
2002-11-20 09:40 51°23.063 3°8.346 5.7 280 7.4 100840 85
2002-11-20 09:41 51°23.125 3°7.971 6.4 304 7.3 100840 85
2002-11-20 09:42 51°23.191 3°7.603 4.3 291 7.3 100840 85
2002-11-20 09:43 51°23.261 3°7.233 6.8 303 7.4 100840 85
2002-11-20 09:44 51°23.323 3°6.909 0.9 323 7.4 100840 85
2002-11-20 09:45 51°23.39 3°6.678 3.7 358 7.5 100840 85
2002-11-20 09:46 51°23.553 3°6.462 2.4 116 7.4 100840 85
2002-11-20 09:47 51°23.771 3°6.454 7.8 169 7.5 100840 85
2002-11-20 09:48 51°23.972 3°6.629 8.5 192 7.5 100810 85
2002-11-20 09:49 51°24.117 3°6.869 10.1 168 7.5 100800 84
2002-11-20 09:50 51°24.204 3°6.985 5.1 138 7.5 100830 85
2002-11-20 09:51 51°24.258 3°7.043 7.1 129 7.6 100820 85
2002-11-20 09:52 51°24.293 3°7.09 5.9 119 7.5 100820 85
2002-11-20 09:53 51°24.334 3°7.086 4.7 51 7.6 100820 85
2002-11-20 09:54 51°24.348 3°7.021 4.8 336 7.6 100830 85
2002-11-20 09:55 51°24.347 3°6.98 6.8 5 7.5 100840 85
2002-11-20 09:56 51°24.344 3°6.948 7.8 353 7.6 100830 85
2002-11-20 09:57 51°24.337 3°6.92 3.2 328 7.6 100830 85
2002-11-20 09:58 51°24.324 3°6.896 5.8 316 7.6 100830 85
2002-11-20 09:59 51°24.306 3°6.875 9.1 303 7.6 100830 85
2002-11-20 10:00 51°24.288 3°6.857 9.1 291 7.6 100820 85
2002-11-20 10:01 51°24.275 3°6.846 8.9 286 7.6 100820 84
2002-11-20 10:02 51°24.271 3°6.841 8.8 302 7.6 100830 84
2002-11-20 10:03 51°24.274 3°6.842 2.8 322 7.5 100830 84
2002-11-20 10:04 51°24.275 3°6.855 3.6 334 7.7 100840 85
2002-11-20 10:05 51°24.276 3°6.867 7.3 352 7.6 100840 85
2002-11-20 10:06 51°24.274 3°6.879 6.9 348 7.6 100830 85
2002-11-20 10:07 51°24.273 3°6.889 7.3 356 7.6 100840 85
2002-11-20 10:08 51°24.271 3°6.898 6.2 7 7.5 100840 85
2002-11-20 10:09 51°24.268 3°6.906 8 7 7.6 100830 85
2002-11-20 10:10 51°24.265 3°6.913 8.1 8 7.6 100830 85
2002-11-20 10:11 51°24.263 3°6.917 7.2 5 7.5 100830 84
2002-11-20 10:12 51°24.263 3°6.914 7.1 1 7.5 100830 85
2002-11-20 10:13 51°24.261 3°6.907 5.7 345 7.5 100820 85
2002-11-20 10:14 51°24.256 3°6.899 0.7 330 7.5 100800 85
2002-11-20 10:15 51°24.249 3°6.875 2.5 354 7.5 100800 85
2002-11-20 10:16 51°24.244 3°6.841 7.8 354 7.5 100800 85
2002-11-20 10:17 51°24.243 3°6.806 7.6 14 7.5 100800 85
2002-11-20 10:18 51°24.253 3°6.773 6 51 7.5 100810 85
2002-11-20 10:19 51°24.273 3°6.754 6 91 7.7 100810 85
2002-11-20 10:20 51°24.295 3°6.76 6 113 7.7 100810 85
2002-11-20 10:21 51°24.313 3°6.786 8.8 133 7.7 100810 85
2002-11-20 10:22 51°24.323 3°6.822 7.8 153 7.7 100800 85
2002-11-20 10:23 51°24.331 3°6.872 7.6 163 7.7 100790 85
2002-11-20 10:24 51°24.386 3°6.932 5.5 134 7.8 100780 86
2002-11-20 10:25 51°24.548 3°7.018 6.3 151 7.8 100780 85
2002-11-20 10:26 51°24.751 3°7.124 8.4 159 7.8 100780 85
2002-11-20 10:27 51°24.96 3°7.228 8.5 162 7.7 100770 85
2002-11-20 10:28 51°25.165 3°7.337 7 164 7.7 100780 84
2002-11-20 10:29 51°25.372 3°7.444 6.5 158 7.7 100780 84
2002-11-20 10:30 51°25.58 3°7.557 6.6 162 7.8 100800 85
2002-11-20 10:31 51°25.789 3°7.663 6.1 157 7.8 100800 85
2002-11-20 10:32 51°25.997 3°7.768 7 161 7.7 100780 85
2002-11-20 10:33 51°26.203 3°7.871 7.4 163 7.7 100780 85
2002-11-20 10:34 51°26.409 3°7.977 7.7 163 7.7 100780 85
2002-11-20 10:35 51°26.616 3°8.081 7.6 162 7.7 100770 85
2002-11-20 10:36 51°26.825 3°8.185 7.4 163 7.7 100770 85
2002-11-20 10:37 51°27.023 3°8.328 8.7 165 7.8 100760 85
2002-11-20 10:38 51°27.21 3°8.509 9.1 172 7.7 100750 85
2002-11-20 10:39 51°27.406 3°8.668 6.7 164 7.7 100760 85
2002-11-20 10:40 51°27.596 3°8.838 10 169 7.7 100770 85
2002-11-20 10:41 51°27.768 3°9.06 9.5 174 7.8 100750 85
2002-11-20 10:42 51°27.933 3°9.253 7.7 130 7.7 100750 85
2002-11-20 10:43 51°28.032 3°9.269 5.8 69 7.8 100770 85
2002-11-20 10:44 51°28.08 3°9.212 5.7 46 7.8 100770 86
2002-11-20 10:45 51°28.113 3°9.175 6.7 72 8 100770 85
2002-11-20 10:46 51°28.14 3°9.162 7.4 85 7.9 100760 84
2002-11-20 10:47 51°28.157 3°9.158 8.7 93 7.9 100760 84
2002-11-20 10:48 51°28.163 3°9.159 7.2 116 7.9 100750 85
2002-11-20 10:49 51°28.165 3°9.164 6.7 125 8 100750 86
2002-11-20 10:50 51°28.164 3°9.168 8.1 133 8 100750 85
2002-11-20 10:51 51°28.161 3°9.17 8.6 133 7.9 100750 85
2002-11-20 10:52 51°28.152 3°9.154 7.7 121 7.9 100750 85
2002-11-20 10:53 51°28.139 3°9.14 7.9 103 7.9 100750 85
2002-11-20 10:54 51°28.13 3°9.133 8.7 96 7.9 100740 85
2002-11-20 10:55 51°28.128 3°9.129 9.2 91 7.8 100750 84
2002-11-20 10:56 51°28.131 3°9.129 8.1 103 7.9 100750 85
2002-11-20 10:57 51°28.137 3°9.136 7.7 110 7.9 100750 84
2002-11-20 10:58 51°28.142 3°9.147 7.2 118 7.9 100750 84
2002-11-20 10:59 51°28.144 3°9.156 7.7 118 7.9 100750 85
2002-11-20 11:00 51°28.151 3°9.174 6.7 107 8 100750 85
2002-11-20 11:01 51°28.174 3°9.192 6.9 98 8 100760 85
2002-11-20 11:02 51°28.193 3°9.204 7.8 109 8 100750 85
2002-11-20 11:03 51°28.203 3°9.217 8.2 109 8 100740 85
2002-11-20 11:04 51°28.205 3°9.225 7.4 105 7.9 100750 84
2002-11-20 11:05 51°28.181 3°9.21 8 92 7.9 100750 85
2002-11-20 11:06 51°28.152 3°9.204 7 86 7.9 100740 84
2002-11-20 11:07 51°28.133 3°9.205 8.2 82 7.9 100750 84
2002-11-20 11:08 51°28.14 3°9.201 6.7 31 7.9 100750 84
2002-11-20 11:09 51°28.15 3°9.174 7.3   8 100760 85
2002-11-20 11:10 51°28.151 3°9.157 5.2 348 8 100750 85
2002-11-20 11:11 51°28.15 3°9.143 4.9 351 8 100750 85
2002-11-20 11:12 51°28.146 3°9.132 2 346 8 100750 84
2002-11-20 11:13 51°28.143 3°9.121 1.1 301 8 100730 84
2002-11-20 11:14 51°28.137 3°9.107 1.1 333 8 100730 84
2002-11-20 11:15 51°28.133 3°9.08 6.1 359 8 100730 85
2002-11-20 11:16 51°28.141 3°9.055 8.2 9 8 100730 84
2002-11-20 11:17 51°28.159 3°9.035 6.2 40 8 100730 84
2002-11-20 11:18 51°28.185 3°9.031 8.1 75 8 100740 84
2002-11-20 11:19 51°28.212 3°9.049 6.8 109 7.9 100740 84
2002-11-20 11:20 51°28.234 3°9.081 7.3 125 8 100740 84
2002-11-20 11:21 51°28.251 3°9.12 7.7 140 7.9 100730 84
2002-11-20 11:22 51°28.265 3°9.174 6.2 177 8 100730 84
2002-11-20 11:23 51°28.251 3°9.261 10 234 8 100720 84
2002-11-20 11:24 51°28.202 3°9.286 9.2 304 8 100700 84
2002-11-20 11:25 51°28.187 3°9.219 5.2 348 8 100710 84
2002-11-20 11:26 51°28.199 3°9.091 1 319 8 100720 85
2002-11-20 11:27 51°28.215 3°8.926 0.7 342 8 100710 84
2002-11-20 11:28 51°28.231 3°8.753 2.6 301 8 100710 85
2002-11-20 11:29 51°28.248 3°8.58 2 322 8.1 100700 85
2002-11-20 11:30 51°28.259 3°8.409 1.1 330 8 100700 85
2002-11-20 11:31 51°28.269 3°8.238 1.2 334 8 100700 85
2002-11-20 11:32 51°28.281 3°8.07 0.8 322 8 100690 84
2002-11-20 11:33 51°28.295 3°7.902 2 304 8.1 100700 85
2002-11-20 11:34 51°28.311 3°7.733 1.5 303 8.1 100690 85
2002-11-20 11:35 51°28.325 3°7.564 2.3 343 8.1 100690 85
2002-11-20 11:36 51°28.337 3°7.394 1.9 346 8.1 100690 85
2002-11-20 11:37 51°28.351 3°7.226 1.5 345 8.1 100690 85
2002-11-20 11:38 51°28.367 3°7.032 2 330 8.1 100690 85
2002-11-20 11:39 51°28.387 3°6.798 5.8 302 8.2 100690 85
2002-11-20 11:40 51°28.406 3°6.558 6.4 305 8.1 100690 84
2002-11-20 11:41 51°28.427 3°6.317 6.1 308 8.2 100690 85
2002-11-20 11:42 51°28.448 3°6.075 4.3 303 8.1 100680 84
2002-11-20 11:43 51°28.47 3°5.833 3.8 301 8.1 100680 84
2002-11-20 11:44 51°28.493 3°5.59 4.7 305 8.2 100680 85
2002-11-20 11:45 51°28.516 3°5.347 4.3 318 8.2 100680 84
2002-11-20 11:46 51°28.542 3°5.104 5.4 311 8.2 100680 85
2002-11-20 11:47 51°28.569 3°4.861 5.9 303 8.2 100670 84
2002-11-20 11:48 51°28.597 3°4.617 5.4 306 8.2 100670 84
2002-11-20 11:49 51°28.622 3°4.41 1.5 334 8.2 100670 84
2002-11-20 11:50 51°28.641 3°4.263 2.7 316 8.2 100670 84
2002-11-20 11:51 51°28.65 3°4.174 0.9 342 8.2 100670 84
2002-11-20 11:52 51°28.655 3°4.113 5.1 294 8.3 100670 84
2002-11-20 11:53 51°28.659 3°4.064 7.5 303 8.3 100660 84
2002-11-20 11:54 51°28.664 3°4.016 1.6 322 8.4 100660 84
2002-11-20 11:55 51°28.675 3°3.966 1.2 343 8.4 100660 85
2002-11-20 11:56 51°28.69 3°3.906 0.8 329 8.4 100660 84
2002-11-20 11:57 51°28.694 3°3.841 3.2 309 8.4 100650 85
2002-11-20 11:58 51°28.692 3°3.792 2.3 338 8.4 100650 85
2002-11-20 11:59 51°28.696 3°3.772 3.7 306 8.4 100680 84
2002-11-20 12:00 51°28.706 3°3.771 4.2 305 8.5 100670 85
2002-11-20 12:01 51°28.711 3°3.767 7.1 305 8.5 100670 84
2002-11-20 12:02 51°28.714 3°3.763 8.1 297 8.4 100660 85
2002-11-20 12:03 51°28.714 3°3.759 9 291 8.4 100660 84
2002-11-20 12:04 51°28.711 3°3.758 7.6 287 8.4 100660 84
2002-11-20 12:05 51°28.706 3°3.761 8.2 284 8.4 100650 84
2002-11-20 12:06 51°28.701 3°3.762 8.4 283 8.4 100650 83
2002-11-20 12:07 51°28.696 3°3.765 7.7 283 8.4 100650 83
2002-11-20 12:08 51°28.689 3°3.77 7 307 8.4 100640 83
2002-11-20 12:09 51°28.684 3°3.77 7.6 294 8.5 100640 83
2002-11-20 12:10 51°28.679 3°3.768 9.4 292 8.5 100640 83
2002-11-20 12:11 51°28.675 3°3.768 8.6 296 8.5 100640 83
2002-11-20 12:12 51°28.672 3°3.765 7.3 295 8.5 100630 83
2002-11-20 12:13 51°28.668 3°3.761 7.4 290 8.6 100640 84
2002-11-20 12:14 51°28.665 3°3.759 7.2 295 8.5 100630 83
2002-11-20 12:15 51°28.661 3°3.754 7.9 294 8.6 100640 83
2002-11-20 12:16 51°28.659 3°3.749 9 293 8.6 100640 83
2002-11-20 12:17 51°28.658 3°3.743 8.5 298 8.6 100650 83
2002-11-20 12:18 51°28.658 3°3.736 7.8 297 8.6 100650 83
2002-11-20 12:19 51°28.658 3°3.727 8.4 294 8.6 100650 83
2002-11-20 12:20 51°28.659 3°3.719 7.9 302 8.6 100650 83
2002-11-20 12:21 51°28.661 3°3.71 9 293 8.6 100640 83
2002-11-20 12:22 51°28.665 3°3.696 4.6 301 8.7 100630 83
2002-11-20 12:23 51°28.674 3°3.674 3.1 322 8.7 100630 83
2002-11-20 12:24 51°28.7 3°3.647 6.4 4 8.7 100630 82
2002-11-20 12:25 51°28.742 3°3.638 6.4 42 8.6 100630 82
2002-11-20 12:26 51°28.794 3°3.653 8 80 8.7 100630 83
2002-11-20 12:27 51°28.842 3°3.683 7.3 99 8.7 100630 81
2002-11-20 12:28 51°28.885 3°3.724 8.6 116 8.7 100640 82
2002-11-20 12:29 51°28.925 3°3.772 8 127 8.7 100640 81
2002-11-20 12:30 51°28.962 3°3.825 8.2 141 8.7 100620 82
2002-11-20 12:31 51°28.994 3°3.878 7.8 151 8.8 100620 81
2002-11-20 12:32 51°29.023 3°3.937 6.6 180 8.7 100610 82
2002-11-20 12:33 51°29.045 3°4.006 7.8 224 8.7 100600 82
2002-11-20 12:34 51°29.019 3°4.074 9.2 261 8.7 100610 83
2002-11-20 12:35 51°28.882 3°4.034 13.6 258 8.7 100590 82
2002-11-20 12:36 51°28.692 3°3.936 13.6 260 8.7 100570 82
2002-11-20 12:37 51°28.503 3°3.811 14.2 258 8.8 100580 82
2002-11-20 12:38 51°28.319 3°3.672 12.1 263 8.8 100570 81
2002-11-20 12:39 51°28.138 3°3.536 12.3 262 8.9 100570 82
2002-11-20 12:40 51°27.957 3°3.399 13.9 260 8.9 100560 82
2002-11-20 12:41 51°27.772 3°3.261 13.8 257 8.9 100560 82
2002-11-20 12:42 51°27.587 3°3.119 13.5 258 8.9 100570 81
2002-11-20 12:43 51°27.401 3°2.978 13.7 257 8.9 100560 81
2002-11-20 12:44 51°27.217 3°2.843 13.5 260 8.9 100570 81
2002-11-20 12:45 51°27.032 3°2.701 13.5 260 8.9 100570 81
2002-11-20 12:46 51°26.846 3°2.558 14.5 254 8.9 100560 81
2002-11-20 12:47 51°26.662 3°2.415 14.2 258 8.9 100560 81
2002-11-20 12:48 51°26.477 3°2.275 14.2 258 8.9 100560 81
2002-11-20 12:49 51°26.293 3°2.133 13.4 260 8.9 100560 81
2002-11-20 12:50 51°26.107 3°1.994 13.8 261 9 100560 81
2002-11-20 12:51 51°25.92 3°1.852 15.1 260 9 100560 81
2002-11-20 12:52 51°25.733 3°1.71 13.7 261 9 100550 81
2002-11-20 12:53 51°25.544 3°1.567 15 258 9 100550 82
2002-11-20 12:54 51°25.357 3°1.422 15 263 9 100550 81
2002-11-20 12:55 51°25.169 3°1.28 15.8 261 9 100530 81
2002-11-20 12:56 51°24.98 3°1.133 15.8 262 9 100530 81
2002-11-20 12:57 51°24.79 3°0.985 14.2 261 9 100540 81
2002-11-20 12:58 51°24.589 3°0.874 14.7 254 9 100530 81
2002-11-20 12:59 51°24.381 3°0.807 15 255 9.1 100530 82
2002-11-20 13:00 51°24.175 3°0.748 14.7 260 9.1 100540 82
2002-11-20 13:01 51°23.976 3°0.669 14 259 9.1 100540 82
2002-11-20 13:02 51°23.785 3°0.577 13.2 256 9.1 100540 81
2002-11-20 13:03 51°23.616 3°0.484 10.8 265 9.1 100540 81
2002-11-20 13:04 51°23.509 3°0.372 10.5 281 9.1 100540 81
2002-11-20 13:05 51°23.42 3°0.256 10.6 284 9.1 100540 81
2002-11-20 13:06 51°23.366 3°0.165 8.7 283 9.1 100560 81
2002-11-20 13:07 51°23.321 3°0.1 9.7 293 9.2 100560 81
2002-11-20 13:08 51°23.285 3°0.036 10.4 297 9.2 100560 82
2002-11-20 13:09 51°23.252 3°0.008 10 286 9.2 100570 82
2002-11-20 13:10 51°23.242 3°0.016 8.5 284 9.2 100580 81
2002-11-20 13:11 51°23.241 3°0.033 8 284 9.2 100580 81
2002-11-20 13:12 51°23.244 3°0.047 9 286 9.2 100570 81
2002-11-20 13:13 51°23.246 3°0.056 8.2 298 9.2 100570 81
2002-11-20 13:14 51°23.243 3°0.057 8.9 293 9.2 100570 81
2002-11-20 13:15 51°23.24 3°0.05 8.7 298 9.2 100560 81
2002-11-20 13:16 51°23.238 3°0.035 7.6 298 9.2 100570 81
2002-11-20 13:17 51°23.237 3°0.014 7.8 300 9.3 100560 82
2002-11-20 13:18 51°23.232 3°0.001 7 300 9.2 100560 81
2002-11-20 13:19 51°23.227 2°59.997 7.1 302 9.2 100560 81
2002-11-20 13:20 51°23.218 3°0 7.1 291 9.2 100550 82
2002-11-20 13:21 51°23.21 3°0.008 8.9 287 9.2 100550 82
2002-11-20 13:22 51°23.205 3°0.023 8.4 284 9.2 100560 82
2002-11-20 13:23 51°23.188 3°0.011 6.2 306 9.2 100560 82
2002-11-20 13:24 51°23.198 2°59.957 1.5 340 9.2 100560 82
2002-11-20 13:25 51°23.217 2°59.945 2.5 303 9.2 100560 81
2002-11-20 13:26 51°23.233 2°59.944 3.3 311 9.2 100560 81
2002-11-20 13:27 51°23.247 2°59.946 6.2 302 9.2 100560 81
2002-11-20 13:28 51°23.259 2°59.953 4.5 310 9.2 100550 81
2002-11-20 13:29 51°23.269 2°59.964 7.6 302 9.1 100550 81
2002-11-20 13:30 51°23.275 2°59.978 8.3 300 9.1 100550 81
2002-11-20 13:31 51°23.277 2°59.996 7.3 290 9.1 100550 81
2002-11-20 13:32 51°23.276 3°0.02 8.4 266 9.2 100540 81
2002-11-20 13:33 51°23.274 3°0.051 8.4 258 9.1 100540 81
2002-11-20 13:34 51°23.272 3°0.09 7.8 248 9.1 100530 81
2002-11-20 13:35 51°23.265 3°0.141 7.6 230 9.1 100540 80
2002-11-20 13:36 51°23.259 3°0.203 7.9 235 9.2 100550 80
2002-11-20 13:37 51°23.255 3°0.265 8.7 234 9.2 100540 80
2002-11-20 13:38 51°23.251 3°0.318 8 238 9.1 100540 80
2002-11-20 13:39 51°23.249 3°0.36 8.1 247 9.2 100540 80
2002-11-20 13:40 51°23.238 3°0.382 9 302 9.2 100520 80
2002-11-20 13:41 51°23.24 3°0.37 1.4 287 9.2 100530 80
2002-11-20 13:42 51°23.255 3°0.344 2.9 354 9.2 100530 81
2002-11-20 13:43 51°23.272 3°0.314 5.5 352 9.3 100530 82
2002-11-20 13:44 51°23.293 3°0.284 7 2 9.2 100520 81
2002-11-20 13:45 51°23.305 3°0.243 1.7 327 9.2 100510 82
2002-11-20 13:46 51°23.281 3°0.139 10.3 297 9.3 100510 82
2002-11-20 13:47 51°23.188 2°59.891 9.5 284 9.2 100500 82
2002-11-20 13:48 51°23.1 2°59.714 10.2 278 9.3 100500 82
2002-11-20 13:49 51°22.994 2°59.653 12.1 268 9.2 100490 81
2002-11-20 13:50 51°22.862 2°59.572 10 281 9.2 100490 81
2002-11-20 13:51 51°22.735 2°59.376 10.8 289 9.3 100500 81
2002-11-20 13:52 51°22.64 2°59.084 9.4 280 9.3 100500 82
2002-11-20 13:53 51°22.568 2°58.766 11.1 287 9.3 100500 82
2002-11-20 13:54 51°22.494 2°58.451 10.3 291 9.3 100490 82
2002-11-20 13:55 51°22.416 2°58.139 11.5 282 9.2 100490 81
2002-11-20 13:56 51°22.336 2°57.829 10.5 289 9.2 100490 81
2002-11-20 13:57 51°22.257 2°57.52 10.9 289 9.2 100480 81
2002-11-20 13:58 51°22.176 2°57.212 10.9 289 9.2 100490 81
2002-11-20 13:59 51°22.099 2°56.905 9.6 284 9.2 100480 81
2002-11-20 14:00 51°22.019 2°56.598 12.3 286 9.2 100480 81
2002-11-20 14:01 51°21.937 2°56.288 11.3 286 9.2 100480 81
2002-11-20 14:02 51°21.853 2°55.976 10.6 283 9.2 100480 81
2002-11-20 14:03 51°21.796 2°55.648 11 295 9.2 100480 81
2002-11-20 14:04 51°21.753 2°55.309 11.3 290 9.2 100490 81
2002-11-20 14:05 51°21.708 2°54.971 10.7 286 9.2 100490 81
2002-11-20 14:06 51°21.661 2°54.637 10 289 9.2 100490 81
2002-11-20 14:07 51°21.614 2°54.301 9.9 297 9.2 100500 81
2002-11-20 14:08 51°21.563 2°53.966 9 290 9.2 100500 81
2002-11-20 14:09 51°21.507 2°53.632 10.7 290 9.2 100500 81
2002-11-20 14:10 51°21.452 2°53.297 10.7 290 9.2 100480 81
2002-11-20 14:11 51°21.396 2°52.962 11.6 291 9.1 100490 81
2002-11-20 14:12 51°21.337 2°52.629 12.1 292 9.2 100480 82
2002-11-20 14:13 51°21.244 2°52.321 11 288 9.2 100470 81
2002-11-20 14:14 51°21.146 2°52.018 11 292 9.2 100470 82
2002-11-20 14:15 51°21.046 2°51.717 9.8 279 9.2 100460 82
2002-11-20 14:16 51°20.95 2°51.413 10.6 287 9.2 100440 82
2002-11-20 14:17 51°20.854 2°51.106 11 281 9.2 100450 82
2002-11-20 14:18 51°20.759 2°50.803 11.5 282 9.2 100450 82
2002-11-20 14:19 51°20.664 2°50.5 11 286 9.2 100450 82
2002-11-20 14:20 51°20.569 2°50.198 11.8 285 9.2 100450 82
2002-11-20 14:21 51°20.473 2°49.896 11.4 291 9.2 100450 82
2002-11-20 14:22 51°20.378 2°49.595 13.5 286 9.3 100450 82
2002-11-20 14:23 51°20.284 2°49.292 11.5 285 9.3 100450 82
2002-11-20 14:24 51°20.19 2°48.988 12.2 284 9.3 100440 82
2002-11-20 14:25 51°20.095 2°48.678 11.9 291 9.2 100450 81
2002-11-20 14:26 51°20.021 2°48.366 11.3 289 9.2 100450 81
2002-11-20 14:27 51°19.944 2°48.047 11.3 284 9.3 100460 82
2002-11-20 14:28 51°19.897 2°47.856 5.3 294 9.3 100460 81
2002-11-20 14:29 51°19.898 2°47.763 2 340 9.2 100470 81
2002-11-20 14:30 51°19.911 2°47.73 1.1 328 9.2 100490 81
2002-11-20 14:31 51°19.923 2°47.717 3.5 302 9.2 100470 81
2002-11-20 14:32 51°19.932 2°47.708 4.9 319 9.2 100480 82
2002-11-20 14:33 51°19.94 2°47.702 6.9 318 9.4 100480 82
2002-11-20 14:34 51°19.947 2°47.697 9 293 9.3 100470 82
2002-11-20 14:35 51°19.953 2°47.695 8.8 300 9.3 100470 82
2002-11-20 14:36 51°19.958 2°47.695 8.7 288 9.3 100480 82
2002-11-20 14:37 51°19.962 2°47.696 9.6 280 9.3 100470 82
2002-11-20 14:38 51°19.936 2°47.722 9.5 237 9.3 100440 81
2002-11-20 14:39 51°19.913 2°47.767 9 250 9.3 100460 81
2002-11-20 14:40 51°19.907 2°47.795 8.5 259 9.3 100450 81
2002-11-20 14:41 51°19.903 2°47.81 8.5 269 9.3 100460 82
2002-11-20 14:42 51°19.903 2°47.815 9.2 290 9.4 100470 82
2002-11-20 14:43 51°19.905 2°47.817 7.5 279 9.4 100470 82
2002-11-20 14:44 51°19.907 2°47.819 8.4 285 9.3 100460 81
2002-11-20 14:45 51°19.911 2°47.823 9.4 284 9.4 100460 82
2002-11-20 14:46 51°19.915 2°47.826 7.9 285 9.3 100460 81
2002-11-20 14:47 51°19.921 2°47.829 9.3 281 9.3 100450 82
2002-11-20 14:48 51°19.927 2°47.833 8.9 285 9.3 100450 81
2002-11-20 14:49 51°19.924 2°47.83 9.9 289 9.3 100450 81
2002-11-20 14:50 51°19.899 2°47.794 9.9 300 9.4 100450 82
2002-11-20 14:51 51°19.898 2°47.779 10.3 301 9.4 100470 82
2002-11-20 14:52 51°19.902 2°47.769 8.8 297 9.4 100470 81
2002-11-20 14:53 51°19.909 2°47.766 8.6 297 9.3 100470 81
2002-11-20 14:54 51°19.918 2°47.767 8 288 9.4 100460 82
2002-11-20 14:55 51°19.925 2°47.767 8 295 9.4 100460 81
2002-11-20 14:56 51°19.93 2°47.758 6.9 302 9.5 100460 82
2002-11-20 14:57 51°19.938 2°47.73 4.2 356 9.4 100450 82
2002-11-20 14:58 51°19.962 2°47.691 6.5 16 9.4 100460 81
2002-11-20 14:59 51°20.001 2°47.665 6.2 47 9.4 100460 81
2002-11-20 15:00 51°20.048 2°47.663 6.7 81 9.5 100470 81
2002-11-20 15:01 51°20.092 2°47.683 7.9 124 9.4 100470 81
2002-11-20 15:02 51°20.126 2°47.712 7.1 140 9.4 100460 81
2002-11-20 15:03 51°20.158 2°47.744 8.6 147 9.5 100460 81
2002-11-20 15:04 51°20.201 2°47.788 7.2 106 9.5 100450 81
2002-11-20 15:05 51°20.271 2°47.734 1.4 333 9.5 100450 82
2002-11-20 15:06 51°20.23 2°47.567 11.8 297 9.5 100440 82
2002-11-20 15:07 51°20.137 2°47.264 10.8 289 9.5 100420 81
2002-11-20 15:08 51°20.032 2°46.95 12.1 281 9.5 100410 81
2002-11-20 15:09 51°19.922 2°46.643 11.7 287 9.5 100410 81
2002-11-20 15:10 51°19.812 2°46.334 9.8 285 9.5 100410 81
2002-11-20 15:11 51°19.703 2°46.023 11.4 286 9.5 100400 82
2002-11-20 15:12 51°19.593 2°45.713 11.5 284 9.4 100390 81
2002-11-20 15:13 51°19.484 2°45.402 12.1 289 9.4 100400 81
2002-11-20 15:14 51°19.375 2°45.094 10.7 288 9.4 100390 81
2002-11-20 15:15 51°19.268 2°44.783 11.1 284 9.4 100360 82
2002-11-20 15:16 51°19.16 2°44.474 11.6 287 9.5 100350 82
2002-11-20 15:17 51°19.062 2°44.157 12.4 292 9.5 100350 82
2002-11-20 15:18 51°18.985 2°43.882 9.3 302 9.5 100390 82
2002-11-20 15:19 51°18.942 2°43.784 8.9 295 9.5 100400 82
2002-11-20 15:20 51°18.921 2°43.749 10.2 283 9.5 100430 82
2002-11-20 15:21 51°18.908 2°43.738 10.3 284 9.5 100400 82
2002-11-20 15:22 51°18.908 2°43.733 8.5 276 9.5 100420 82
2002-11-20 15:23 51°18.911 2°43.733 10 264 9.6 100390 82
2002-11-20 15:24 51°18.919 2°43.734 9.2 267 9.5 100390 82
2002-11-20 15:25 51°18.927 2°43.736 10.1 265 9.4 100400 82
2002-11-20 15:26 51°18.931 2°43.742 11 253 9.5 100380 82
2002-11-20 15:27 51°18.934 2°43.751 9.4 251 9.5 100380 82
2002-11-20 15:28 51°18.935 2°43.764 10.5 250 9.5 100380 82
2002-11-20 15:29 51°18.934 2°43.782 9.8 246 9.5 100380 81
2002-11-20 15:30 51°18.932 2°43.803 9.9 241 9.5 100380 81
2002-11-20 15:31 51°18.929 2°43.826 8.8 240 9.5 100380 81
2002-11-20 15:32 51°18.922 2°43.852 10.1 245 9.5 100380 82
2002-11-20 15:33 51°18.908 2°43.868 9 270 9.5 100370 82
2002-11-20 15:34 51°18.898 2°43.872 8 269 9.6 100390 82
2002-11-20 15:35 51°18.891 2°43.874 10.5 274 9.6 100400 82
2002-11-20 15:36 51°18.886 2°43.874 9.6 274 9.6 100400 82
2002-11-20 15:37 51°18.883 2°43.874 9.1 273 9.5 100390 82
2002-11-20 15:38 51°18.882 2°43.874 10.4 275 9.5 100390 81
2002-11-20 15:39 51°18.882 2°43.872 8.9 271 9.5 100390 81
2002-11-20 15:40 51°18.883 2°43.872 9.5 271 9.5 100380 82
2002-11-20 15:41 51°18.884 2°43.869 8.7 269 9.5 100390 82
2002-11-20 15:42 51°18.884 2°43.867 9 273 9.6 100380 82
2002-11-20 15:43 51°18.884 2°43.866 8.6 262 9.6 100390 82
2002-11-20 15:44 51°18.885 2°43.865 10.1 270 9.6 100370 82
2002-11-20 15:45 51°18.886 2°43.86 10.7 274 9.6 100370 82
2002-11-20 15:46 51°18.885 2°43.852 9.2 282 9.5 100380 81
2002-11-20 15:47 51°18.873 2°43.836 9.9 304 9.6 100380 82
2002-11-20 15:48 51°18.868 2°43.794 3.9 343 9.6 100380 82
2002-11-20 15:49 51°18.88 2°43.744 6.2 357 9.6 100390 83
2002-11-20 15:50 51°18.904 2°43.697 8.4 12 9.7 100390 83
2002-11-20 15:51 51°18.938 2°43.659 6.4 133 9.6 100400 82
2002-11-20 15:52 51°18.98 2°43.641 7 84 9.6 100400 82
2002-11-20 15:53 51°19.02 2°43.644 8.5 117 9.6 100400 82
2002-11-20 15:54 51°19.056 2°43.66 9.5 142 9.6 100400 82
2002-11-20 15:55 51°19.086 2°43.68 9.5 153 9.5 100380 82
2002-11-20 15:56 51°19.113 2°43.715 8.6 176 9.6 100380 82
2002-11-20 15:57 51°19.12 2°43.784 10.9 232 9.6 100360 83
2002-11-20 15:58 51°19.05 2°43.809 14.4 243 9.6 100350 82
2002-11-20 15:59 51°18.889 2°43.948 16.1 238 9.5 100340 82
2002-11-20 16:00 51°18.707 2°44.078 16.4 244 9.6 100330 83
2002-11-20 16:01 51°18.527 2°44.211 14.8 240 9.6 100370 82
2002-11-20 16:02 51°18.346 2°44.343 15.3 238 9.6 100340 83
2002-11-20 16:03 51°18.164 2°44.477 16.2 239 9.6 100320 83
2002-11-20 16:04 51°17.981 2°44.611 16.5 242 9.6 100330 83
2002-11-20 16:05 51°17.799 2°44.745 16.8 239 9.6 100340 83
2002-11-20 16:06 51°17.617 2°44.88 17.4 244 9.6 100360 83
2002-11-20 16:07 51°17.435 2°45.011 16.9 245 9.6 100350 83
2002-11-20 16:08 51°17.253 2°45.142 15.9 239 9.6 100350 83
2002-11-20 16:09 51°17.072 2°45.274 15.7 238 9.5 100360 82
2002-11-20 16:10 51°16.896 2°45.434 15.7 238 9.5 100350 83
2002-11-20 16:11 51°16.73 2°45.6 16.6 234 9.5 100350 83
2002-11-20 16:12 51°16.563 2°45.767 17.7 234 9.6 100330 83
2002-11-20 16:13 51°16.395 2°45.933 15.1 238 9.5 100360 83
2002-11-20 16:14 51°16.226 2°46.099 14.8 237 9.5 100350 83
2002-11-20 16:15 51°16.069 2°46.298 14.3 234 9.4 100360 83
2002-11-20 16:16 51°15.936 2°46.538 14.7 223 9.4 100350 83
2002-11-20 16:17 51°15.898 2°46.853 15.3 209 9.5 100320 83
2002-11-20 16:18 51°15.876 2°47.174 15.3 214 9.4 100320 83
2002-11-20 16:19 51°15.841 2°47.491 13 215 9.4 100330 83
2002-11-20 16:20 51°15.803 2°47.807 14.7 220 9.4 100330 83
2002-11-20 16:21 51°15.764 2°48.123 14.5 212 9.4 100330 83
2002-11-20 16:22 51°15.723 2°48.437 13.6 214 9.4 100340 83
2002-11-20 16:23 51°15.683 2°48.75 13.2 212 9.4 100340 83
2002-11-20 16:24 51°15.642 2°49.063 14 217 9.4 100350 83
2002-11-20 16:25 51°15.6 2°49.38 14.6 210 9.4 100350 83
2002-11-20 16:26 51°15.558 2°49.696 15.7 209 9.4 100340 83
2002-11-20 16:27 51°15.515 2°50.011 14.4 207 9.4 100350 82
2002-11-20 16:28 51°15.472 2°50.326 12.8 214 9.4 100330 82
2002-11-20 16:29 51°15.429 2°50.642 14.5 208 9.5 100350 83
2002-11-20 16:30 51°15.386 2°50.957 14.9 214 9.4 100340 82
2002-11-20 16:31 51°15.342 2°51.269 15.1 205 9.4 100340 82
2002-11-20 16:32 51°15.299 2°51.579 16.2 208 9.4 100340 82
2002-11-20 16:33 51°15.222 2°51.856 14.7 214 9.4 100350 82
2002-11-20 16:34 51°15.142 2°52.088 14.9 215 9.4 100360 82
2002-11-20 16:35 51°15.064 2°52.314 14.2 217 9.4 100360 82
2002-11-20 16:36 51°14.986 2°52.54 11.9 215 9.4 100370 82
2002-11-20 16:37 51°14.908 2°52.767 13.5 219 9.4 100370 82
2002-11-20 16:38 51°14.831 2°52.995 12.9 213 9.3 100360 81
2002-11-20 16:39 51°14.764 2°53.196 10.8 215 9.3 100370 82
2002-11-20 16:40 51°14.72 2°53.325 9.4 207 9.3 100390 82
2002-11-20 16:41 51°14.689 2°53.421 8.3 198 9.3 100400 82
2002-11-20 16:42 51°14.664 2°53.502 7.6 205 9.3 100400 81
2002-11-20 16:43 51°14.642 2°53.569 8.2 210 9.2 100390 81
2002-11-20 16:44 51°14.624 2°53.622 8.5 208 9.3 100390 81
2002-11-20 16:45 51°14.609 2°53.668 9.8 197 9.2 100380 81
2002-11-20 16:46 51°14.602 2°53.711 8.5 199 9.2 100380 81
2002-11-20 16:47 51°14.589 2°53.74 8.9 212 9.2 100390 81
2002-11-20 16:48 51°14.575 2°53.761 10.7 223 9.2 100390 81
2002-11-20 16:49 51°14.56 2°53.782 8.5 217 9.2 100380 80
2002-11-20 16:50 51°14.544 2°53.802 9.5 212 9.2 100390 81
2002-11-20 16:51 51°14.527 2°53.822 7.8 218 9.2 100390 80
2002-11-20 16:52 51°14.51 2°53.844 7.6 222 9.2 100400 81
2002-11-20 16:53 51°14.489 2°53.885 9.2 210 9.2 100390 81
2002-11-20 16:54 51°14.461 2°54.049 11.3 199 9.2 100380 81
2002-11-20 16:55 51°14.454 2°54.303 11.4 203 9.2 100380 80
2002-11-20 16:56 51°14.46 2°54.579 9.9 197 9.2 100380 81
2002-11-20 16:57 51°14.431 2°54.852 10.9 214 9.2 100380 80
2002-11-20 16:58 51°14.347 2°55.099 9.5 229 9.1 100390 80
2002-11-20 16:59 51°14.258 2°55.267 9.4 225 9.1 100390 81
2002-11-20 17:00 51°14.186 2°55.36 9.3 233 9.1 100390 81
2002-11-20 17:01 51°14.115 2°55.419 9.1 236 9.1 100390 81
2002-11-20 17:02 51°14.04 2°55.476 8.7 233 9.1 100390 81
2002-11-20 17:03 51°13.962 2°55.536 7.8 227 9.1 100400 81
2002-11-20 17:04 51°13.883 2°55.596 8.1 228 9 100390 81
2002-11-20 17:05 51°13.817 2°55.648 6.9 236 9 100400 81
2002-11-20 17:06 51°13.764 2°55.696 6.7 228 9 100400 81
2002-11-20 17:07 51°13.733 2°55.752 4.1 206 8.9 100410 81
2002-11-20 17:08 51°13.708 2°55.804 5.2 223 8.9 100410 81
2002-11-20 17:09 51°13.687 2°55.851 4.6 219 8.9 100410 81
2002-11-20 17:10 51°13.673 2°55.895 4.4 200 8.9 100420 81
2002-11-20 17:11 51°13.67 2°55.933 3.3 188 8.8 100420 82
2002-11-20 17:12 51°13.671 2°55.943 4.2 203 8.8 100420 82
2002-11-20 17:13 51°13.667 2°55.95 5.8 211 8.8 100420 82
2002-11-20 17:14 51°13.666 2°55.953 4.9 215 8.8 100420 82